^^
Meteo Knjazevac Station Historical Data
Daily Summary for June 12, 2021 Units:  Metric    English   Both
Daily Weekly Monthly Yearly Custom
  High: Low: Average:
Temperature: 8.6 °C 7.8 °C 8.2 °C
Dew Point: 8.4 °C 7.7 °C 8.1 °C
Humidity: 99% 99% 99%
Wind Speed: 8km/h 0km/h 2.1km/h
Wind Gust: 14.5km/h - -
Wind- - NNW
Pressure: 1018.5 hPa 1017.2 hPa -
Precipitation: 1.27 mm    
Historical Graphs
 
 
Tabular Data for June 12, 2021
Time Temperature Dew Point Pressure Wind Wind Speed Wind Gust Humidity Rainfall Rate (Hourly) solar Conditions
00:00 7.8 °C 7.7 °C 1018.5 hPa North 1.6 km/h 4.8 km/h 99% 0 mm 0 W/m2
00:10 7.8 °C 7.7 °C 1018.2 hPa Calm   4.8 km/h 99% 0 mm 0 W/m2
00:20 7.9 °C 7.7 °C 1018.2 hPa Calm   3.2 km/h 99% 0 mm 0 W/m2
00:30 7.9 °C 7.8 °C 1018.2 hPa Calm   1.6 km/h 99% 0 mm 0 W/m2
00:40 7.9 °C 7.8 °C 1018.2 hPa Calm   1.6 km/h 99% 0 mm 0 W/m2
00:50 7.9 °C 7.8 °C 1018.2 hPa Calm   1.6 km/h 99% 0 mm 0 W/m2
01:00 7.9 °C 7.8 °C 1017.8 hPa NW 1.6 km/h 3.2 km/h 99% 0 mm 0 W/m2
01:10 7.9 °C 7.8 °C 1018.2 hPa Calm   3.2 km/h 99% 0 mm 0 W/m2
01:20 7.9 °C 7.8 °C 1017.8 hPa Calm   1.6 km/h 99% 0.25 mm 0 W/m2
01:30 8 °C 7.8 °C 1017.8 hPa Calm   3.2 km/h 99% 0 mm 0 W/m2
01:40 8 °C 7.8 °C 1017.8 hPa Calm   8 km/h 99% 0 mm 0 W/m2
01:50 8.1 °C 7.9 °C 1017.8 hPa NNW 3.2 km/h 11.3 km/h 99% 0 mm 0 W/m2
02:00 8.2 °C 8.1 °C 1017.8 hPa North 3.2 km/h 11.3 km/h 99% 0.25 mm 0 W/m2
02:10 8.3 °C 8.2 °C 1017.8 hPa North 1.6 km/h 9.7 km/h 99% 0 mm 0 W/m2
02:20 8.3 °C 8.2 °C 1017.5 hPa North 4.8 km/h 12.9 km/h 99% 0.51 mm 0 W/m2
02:30 8.4 °C 8.3 °C 1017.5 hPa Calm   11.3 km/h 99% 0 mm 0 W/m2
02:40 8.4 °C 8.3 °C 1017.5 hPa North 3.2 km/h 14.5 km/h 99% 0 mm 0 W/m2
02:50 8.4 °C 8.3 °C 1017.5 hPa North 3.2 km/h 9.7 km/h 99% 0 mm 0 W/m2
03:00 8.5 °C 8.3 °C 1017.2 hPa North 8 km/h 9.7 km/h 99% 0 mm 0 W/m2
03:10 8.5 °C 8.3 °C 1017.5 hPa North 4.8 km/h 12.9 km/h 99% 0 mm 0 W/m2
03:20 8.5 °C 8.3 °C 1017.2 hPa North 3.2 km/h 12.9 km/h 99% 0 mm 0 W/m2
03:30 8.5 °C 8.3 °C 1017.2 hPa North 4.8 km/h 12.9 km/h 99% 0 mm 0 W/m2
03:40 8.5 °C 8.3 °C 1017.2 hPa NNW 1.6 km/h 11.3 km/h 99% 0 mm 0 W/m2
03:50 8.6 °C 8.4 °C 1017.2 hPa North 4.8 km/h 11.3 km/h 99% 0 mm 0 W/m2
Knjazevac, Serbia
Compliments of Weather Underground - 2 mb